Home   Weather   Porto Novo   Past weeks
Flag for Benin

Past Weather in Porto Novo, Benin — Yesterday and Last 2 Weeks

Now
77 °F

Passing clouds.


Feels Like: 78 °F
Forecast: 87 / 80 °F
Wind: 2 mph from North

Location: Cotonou Airport

Current Time: May 25, 2019 at 4:53:20 am

Latest Report: May 25, 2019 at 4:00 am


Visibility: 4 mi

Pressure: 29.83 "Hg

Humidity: 94%

Dew Point: 75 °F

Location of Porto NovoLocation

Past Weather in Porto Novo — Graph

°F

Porto Novo Temperature Yesterday

Maximum temperature yesterday: 86 °F (at 9:00 am)
Minimum temperature yesterday: 77 °F (at 11:00 pm)
Average temperature yesterday: 82 °F

High & Low Weather Summary for the Past Weeks

 TemperatureHumidityPressure
High91 °F (May 10, 1:00 pm)100% (May 20, 10:03 am)29.98 "Hg (May 20, 10:03 am)
Low75 °F (May 19, 11:03 am)56% (May 10, 1:00 pm)29.74 "Hg (May 10, 3:00 am)
Average83 °F83%29.84 "Hg
* Reported May 10 3:00 am — May 25 3:00 am, Porto Novo. Weather by CustomWeather, © 2019

Note: Actual official high and low records may vary slightly from our data, if they occured in-between our weather recording intervals... More about our weather records

Advertising

Porto Novo Weather History for the Previous 24 Hours

Scroll right to see more
 ConditionsComfort  
Time TempWeatherWind HumidityBarometerVisibility
3:00 am
Sat, May 25
77 °FPassing clouds.2 mph94%29.86 "HgN/A
2:00 am77 °FPassing clouds.1 mph94%29.86 "HgN/A
1:00 am77 °FPassing clouds.3 mph100%29.86 "HgN/A
12:00 am77 °FPassing clouds.2 mph94%29.86 "HgN/A
11:00 pm
Fri, May 24
77 °FPassing clouds.2 mph94%29.86 "HgN/A
10:00 pm79 °FPassing clouds.3 mph89%29.86 "HgN/A
9:00 pm79 °FPassing clouds.2 mph89%29.83 "HgN/A
8:00 pm81 °FPassing clouds.7 mph84%29.83 "HgN/A
7:00 pm81 °FPassing clouds.6 mph84%29.80 "HgN/A
6:00 pm81 °FScattered clouds.6 mph84%29.77 "HgN/A
5:00 pm81 °FScattered clouds.6 mph89%29.80 "HgN/A
4:00 pm81 °FLight rain. Scattered clouds.8 mph89%29.83 "HgN/A
3:51 pm81 °FLight rain. Scattered clouds.8 mph89%29.83 "HgN/A
3:08 pm79 °FThunderstorms. Partly sunny.8 mph94%29.83 "Hg5 mi
2:46 pm79 °FThunderstorms. Partly sunny.13 mph89%29.86 "Hg2 mi
2:00 pm82 °FThunderstorms. Scattered clouds.3 mph89%29.83 "Hg5 mi
1:00 pm81 °FThunderstorms. Scattered clouds.2 mph94%29.86 "Hg5 mi
12:23 pm81 °FThunderstorms. Scattered clouds.2 mph94%29.86 "Hg5 mi
12:12 pm82 °FThunderstorms. Scattered clouds.5 mph89%29.86 "Hg2 mi
11:00 am84 °FThunderstorms. Scattered clouds.6 mph89%29.89 "Hg4 mi
10:26 am86 °FThunderstorms. Scattered clouds.9 mph79%29.89 "HgN/A
10:00 am86 °FScattered clouds.9 mph79%29.89 "HgN/A
9:00 am86 °FScattered clouds.10 mph79%29.86 "HgN/A
8:00 am84 °FThunderstorms. Scattered clouds.9 mph84%29.83 "HgN/A
7:00 am84 °FThunderstorms. Scattered clouds.10 mph84%29.83 "HgN/A
6:00 am82 °FThunderstorms. Passing clouds.8 mph89%29.80 "HgN/A
5:00 am82 °FThunderstorms. Passing clouds.9 mph84%29.83 "Hg5 mi
4:08 am82 °FThunderstorms. Passing clouds.10 mph84%29.80 "Hg5 mi
Weather by CustomWeather, © 2019

See weather overview